Theta_e
285 285 284 284 283 283 282 282 282 282 282 281 281 281 281 282 282 282 283 283 283 283 284 283 283 283 283 283 283 283 284 285 287 287 287 286 285 285 285 285 287 287 289
284 284 284 283 282 282 282 282 281 281 281 281 281 281 281 281 281 282 283 283 283 284 283 282 282 282 282 282 282 283 284 284 285 285 285 286 286 285 284 284 285 285 286
283 283 283 282 282 282 282 281 281 281 281 280 281 281 281 281 282 282 282 283 283 283 282 281 281 281 280 282 282 282 283 283 283 283 284 286 286 286 285 285 284 285 285
283 283 282 282 282 281 281 281 281 281 281 280 281 281 281 281 282 282 282 282 282 282 282 282 282 282 281 280 282 282 282 283 283 283 285 286 286 285 285 285 285 285 285
281 282 282 282 282 281 281 281 281 281 281 280 280 281 281 281 282 281 281 282 282 282 282 282 282 282 282 281 281 282 282 283 284 285 286 286 286 285 284 284 284 284 285
280 280 281 281 281 281 281 281 281 282 282 281 280 280 281 282 281 281 281 282 281 281 281 281 281 281 282 282 282 281 282 284 284 285 286 286 285 284 283 283 283 283 285
279 279 279 279 279 280 280 280 281 281 281 280 281 280 280 281 281 281 282 282 282 282 281 282 282 282 282 282 282 282 282 283 284 284 286 285 285 284 282 282 283 283 283
277 277 277 277 278 278 278 279 279 279 279 280 280 281 280 281 282 283 282 282 283 282 282 282 282 282 282 282 282 282 281 281 282 282 284 285 283 283 281 282 282 282 281
276 276 276 275 276 276 277 277 278 278 279 279 280 280 280 281 281 282 282 283 283 283 283 282 282 282 282 282 282 282 282 282 282 282 282 282 283 282 283 283 283 283 283
275 274 274 274 274 275 276 276 277 277 277 278 279 279 280 280 280 281 282 283 283 283 282 282 282 281 281 282 282 282 283 282 282 282 282 282 282 283 283 282 282 281 282
273 273 273 273 274 274 275 275 275 276 276 277 277 277 278 279 279 279 281 282 282 283 283 282 282 281 282 282 283 283 283 282 282 282 282 282 282 282 283 282 281 280 281
272 273 273 274 274 274 274 274 275 275 276 276 277 277 278 279 279 279 279 281 281 282 282 282 282 281 281 282 282 283 283 284 284 284 283 283 283 283 282 281 281 280 279
273 273 273 273 273 273 274 274 275 276 276 277 278 279 279 279 279 280 280 280 281 281 282 282 282 283 282 282 283 283 283 284 284 285 284 283 283 282 281 281 281 280 279
272 272 272 272 273 273 273 273 275 276 276 277 278 279 279 279 279 280 280 281 281 281 282 282 282 282 282 282 282 283 283 284 284 284 284 283 282 280 280 280 280 280 279
271 271 271 272 272 272 272 272 273 274 275 277 278 278 279 278 278 279 280 280 280 281 281 282 281 281 281 281 281 281 282 282 282 282 282 281 281 280 280 279 278 279 279
270 271 271 271 271 271 271 272 273 273 274 275 276 277 277 276 277 278 278 277 277 278 279 280 280 280 281 281 281 281 281 280 280 280 280 280 280 280 280 280 278 278 279
270 270 270 270 270 270 270 271 272 272 273 273 273 273 275 274 274 274 274 274 274 275 276 276 277 277 277 278 278 279 279 279 278 278 279 279 279 279 278 278 279 278 278
271 270 270 269 269 269 269 269 269 269 270 270 271 270 271 270 271 273 272 270 271 271 271 272 273 273 274 274 275 275 275 276 276 276 277 277 277 277 277 277 277 277 278
271 270 270 269 269 269 268 268 268 268 268 268 269 270 270 270 270 271 270 269 268 269 269 269 270 270 271 271 271 272 272 273 273 273 274 274 274 274 275 275 275 275 275
272 271 270 269 268 268 268 267 268 268 267 267 267 268 268 268 269 270 269 268 268 268 268 268 268 268 268 268 268 269 270 271 272 272 272 273 273 273 273 274 274 274 275
272 271 270 268 268 268 267 267 267 266 266 266 266 267 267 267 269 269 268 268 268 268 268 268 268 268 268 268 267 267 267 268 269 270 270 271 271 271 272 272 272 271 272
272 271 270 268 268 267 266 266 266 265 265 265 265 266 266 266 266 266 267 268 269 269 268 268 268 268 268 268 267 267 267 267 267 267 268 269 270 269 269 270 269 269 269
271 270 268 267 267 266 266 265 264 264 265 265 265 265 265 265 265 266 267 268 268 269 269 268 268 268 267 267 267 267 266 267 267 267 266 267 268 268 268 269 268 267 268
268 267 266 266 266 266 265 265 265 265 264 264 265 265 265 265 265 266 267 267 267 268 268 268 267 267 267 267 266 266 266 267 266 266 266 265 266 267 267 267 267 267 267
269 267 266 265 265 266 266 265 265 265 265 264 265 265 265 265 265 265 266 266 266 267 268 267 266 267 267 267 267 266 266 267 266 265 265 265 265 265 266 266 266 266 266
266 265 264 264 264 264 264 264 264 264 264 265 265 265 264 264 264 265 265 265 265 265 265 265 266 266 266 266 266 266 266 266 266 266 265 265 264 264 265 266 266 265 266
Wind_Speed
10 11 12 13 14 15 16 14 14 13 13 11 11 11 12 12 11 12 12 11 11 11 10 9 7 6 7 10 13 13 13 11 8 14 14 21 20 21 21 21 18 18 17
9 12 13 14 15 14 16 15 14 13 11 11 12 13 13 13 12 12 12 13 12 12 11 9 6 4 8 11 12 12 11 11 12 15 15 10 17 21 20 22 20 17 18
6 9 11 13 14 14 15 15 14 13 12 11 13 14 14 13 13 14 14 13 13 12 12 10 8 8 11 12 12 10 9 10 12 13 15 16 14 12 18 16 20 18 18
6 7 10 12 13 14 14 15 14 14 14 13 14 15 14 14 14 15 15 16 16 15 14 14 13 14 16 13 12 11 10 12 12 14 17 15 11 10 13 14 17 17 19
7 7 8 10 12 13 15 15 14 15 15 14 14 14 14 16 17 16 18 17 17 17 18 17 18 19 19 18 14 12 12 13 13 13 14 12 12 10 9 9 15 17 18
5 6 6 7 8 11 13 15 15 15 16 17 17 16 17 18 17 17 16 15 17 19 19 18 19 20 21 20 19 19 17 14 15 14 13 13 13 11 10 10 13 10 4
3 4 4 5 6 7 9 11 14 15 15 18 19 20 19 19 18 18 18 19 19 19 21 20 19 19 20 20 19 20 22 23 24 20 19 17 16 12 10 12 11 12 14
3 4 5 6 7 8 9 10 11 12 13 15 17 19 20 20 20 19 19 19 19 20 22 22 22 22 22 20 19 19 20 22 23 24 24 21 18 17 15 14 15 16 17
4 5 7 7 8 8 9 9 9 9 11 13 14 16 17 18 18 19 17 18 20 23 22 21 21 21 22 22 20 20 20 25 24 24 25 23 21 19 15 14 14 13 12
5 6 7 7 8 8 8 8 7 8 11 10 12 13 15 16 15 16 16 17 20 22 21 23 27 28 26 21 21 22 21 27 19 24 22 23 22 21 20 20 15 14 12
6 7 6 6 8 7 8 8 8 7 8 10 11 12 14 15 15 16 17 18 20 20 20 20 21 22 23 24 24 24 27 24 19 20 20 18 18 20 21 20 21 18 15
6 6 6 6 6 6 8 7 7 6 7 8 7 8 8 9 10 10 12 14 18 21 22 21 20 20 21 22 23 23 25 25 22 19 17 18 16 16 15 16 17 20 22
6 6 6 6 6 6 6 7 6 5 5 6 6 8 9 9 10 9 9 12 14 17 19 20 22 23 24 24 24 24 22 21 21 20 19 18 17 15 16 18 18 17 20
6 6 6 6 7 6 5 5 5 5 5 6 8 8 9 8 8 8 10 10 11 13 16 16 17 18 18 20 21 22 22 20 21 21 20 18 14 13 15 14 12 12 12
5 5 5 5 6 7 6 5 5 5 6 9 8 8 7 8 9 13 12 12 13 13 16 13 11 13 13 13 14 17 16 16 16 18 17 17 16 15 14 12 13 14 15
5 5 5 5 6 6 7 7 5 5 6 5 6 6 5 7 11 11 11 13 13 13 12 11 12 11 11 10 9 10 11 14 15 15 15 16 16 14 13 12 13 14 16
7 7 6 6 6 6 6 6 9 7 5 5 5 7 6 9 10 10 10 12 9 9 5 6 8 8 8 8 7 7 8 7 7 8 10 11 11 12 11 12 12 12 13
9 9 9 8 8 7 7 7 7 8 9 9 8 10 8 10 11 10 10 11 7 6 5 5 7 8 8 8 9 9 10 10 10 10 10 11 10 11 12 13 13 13 13
10 10 10 10 11 11 11 10 10 10 11 13 15 13 12 13 15 11 11 10 10 10 9 10 9 10 10 9 9 10 10 10 10 10 10 10 10 10 12 11 12 12 11
14 14 14 13 13 12 11 11 11 12 13 13 13 15 15 16 12 11 12 14 15 16 15 16 16 16 16 15 13 12 11 11 10 10 10 9 9 9 10 9 9 10 9
16 16 16 16 16 15 15 14 14 14 15 16 18 19 18 16 17 16 16 18 18 19 19 19 20 20 20 20 19 18 17 14 12 12 10 10 9 9 8 8 8 7 6
18 19 18 19 17 17 17 17 17 17 18 19 22 22 18 19 19 20 21 24 23 23 23 23 24 24 24 22 22 20 20 21 17 16 15 14 13 10 9 8 7 7 6
19 21 20 21 21 21 21 20 19 19 19 20 21 22 20 19 22 25 28 30 27 26 25 25 26 29 28 27 25 25 26 27 25 21 19 16 14 12 10 9 9 8 8
19 21 20 21 20 19 19 20 19 21 22 21 20 20 21 24 25 28 30 31 30 29 28 28 29 29 29 30 28 27 27 27 26 25 23 21 18 16 13 11 11 11 9
24 24 23 22 23 22 21 21 21 20 21 21 22 22 24 25 26 29 30 30 31 30 31 31 31 31 30 29 29 28 27 26 25 25 25 24 24 21 18 16 13 13 13
23 23 23 23 23 23 22 22 22 21 22 23 23 23 23 24 26 28 30 30 31 32 33 32 32 30 29 27 27 26 25 24 24 23 24 25 25 24 22 20 18 15 14
Wind_Direction
243 247 251 254 256 258 258 254 254 252 248 245 243 242 239 239 238 238 240 242 243 243 241 239 245 243 241 239 235 236 243 244 266 287 294 303 317 332 336 341 339 338 331
253 251 251 257 254 253 257 256 254 250 243 243 244 241 238 236 236 234 236 236 233 236 235 232 240 247 248 240 232 227 232 245 264 284 295 306 312 321 332 337 341 345 339
279 257 253 250 253 253 255 257 253 249 245 244 241 239 236 235 234 234 235 232 228 234 236 241 251 255 249 243 232 225 230 244 251 263 280 300 307 320 327 330 335 338 339
306 273 254 251 253 256 255 255 253 251 249 245 241 240 236 236 233 232 230 234 235 238 244 253 259 258 251 241 235 233 230 236 251 260 276 290 305 308 310 319 334 335 334
300 295 275 256 252 255 258 258 254 253 253 246 245 243 242 238 232 227 232 235 242 249 256 258 259 256 258 253 244 241 232 236 248 258 272 288 291 303 314 320 317 321 328
309 301 300 284 261 255 260 264 262 258 257 254 249 248 243 238 237 233 231 243 250 256 259 260 258 259 257 255 256 250 239 243 250 256 267 272 282 289 294 306 313 331 325
328 331 328 317 298 282 268 264 266 267 263 257 257 250 248 249 248 243 242 248 254 257 257 256 257 257 260 255 258 255 249 247 245 253 261 262 276 279 282 297 295 296 285
331 327 316 311 298 291 283 273 272 268 264 263 262 259 257 258 258 256 253 251 252 255 256 258 259 262 260 258 257 257 253 251 245 244 247 256 262 270 272 278 289 291 294
336 332 321 317 306 301 291 287 281 276 271 265 263 265 263 264 263 260 253 252 252 253 253 253 254 259 260 260 253 255 256 257 260 257 256 260 262 265 260 271 275 284 299
330 325 322 314 307 302 297 296 289 283 281 279 276 270 268 269 267 264 257 252 252 255 256 255 257 260 262 255 246 250 251 257 251 262 257 254 254 254 249 252 261 260 268
324 326 324 320 312 301 300 300 300 297 288 286 285 284 280 279 278 270 260 254 255 261 260 261 259 260 260 258 251 247 248 262 256 254 261 259 256 256 259 258 258 242 246
333 334 330 330 322 307 310 309 311 306 296 296 300 305 302 309 303 291 272 259 257 259 262 267 269 266 263 263 261 255 255 257 252 250 248 250 251 252 258 265 264 255 247
343 338 335 335 333 328 313 314 327 321 313 312 315 316 318 318 316 321 294 275 268 267 268 271 274 273 269 266 261 259 256 251 247 245 247 252 250 253 261 268 268 259 257
339 331 328 338 336 334 328 328 327 317 317 318 318 319 323 325 333 335 327 313 307 288 286 279 286 277 273 265 261 256 251 247 244 242 250 256 257 249 262 257 253 252 252
324 314 318 322 331 331 336 327 314 301 295 303 309 314 324 325 325 323 325 320 312 306 305 282 287 291 274 262 256 250 249 248 245 246 248 251 251 255 252 248 247 248 244
310 309 313 321 324 326 331 327 309 288 298 297 298 323 318 317 324 328 328 323 318 314 293 281 288 295 285 277 266 262 253 248 248 250 248 248 250 249 255 256 242 243 246
297 302 306 311 310 312 313 313 317 314 295 276 292 296 292 306 321 323 324 325 323 336 328 309 299 297 297 297 293 287 277 271 261 255 250 247 250 256 259 260 255 246 248
287 290 288 290 292 293 291 291 291 297 305 301 286 297 289 297 310 304 313 319 316 319 311 299 295 296 295 294 293 289 284 280 275 270 265 263 261 261 263 261 260 259 258
278 280 279 280 282 282 282 282 278 278 277 282 296 298 291 292 296 286 290 297 295 292 289 284 279 279 279 280 280 280 278 276 272 270 267 264 263 260 261 260 260 260 259
272 273 271 275 279 277 274 271 272 270 273 275 278 283 294 305 297 287 286 289 286 283 282 280 281 279 277 274 272 269 268 269 268 264 263 260 257 253 255 255 252 251 242
270 273 272 269 268 269 268 265 267 268 270 272 274 280 285 285 285 281 283 283 282 282 281 279 279 277 274 271 268 264 262 259 254 255 255 254 249 247 247 246 246 237 233
268 270 269 268 270 267 267 268 268 267 269 271 278 281 280 276 273 274 278 280 282 283 282 280 278 275 273 269 266 261 257 256 252 252 250 248 247 247 241 235 228 222 216
273 272 271 270 268 269 269 268 264 264 267 270 274 279 280 273 273 275 279 283 282 280 280 279 277 278 278 275 269 263 258 258 258 255 250 245 241 234 231 227 220 210 208
279 275 270 269 267 264 265 267 266 266 268 269 271 271 272 274 275 278 281 283 282 283 283 283 281 279 278 278 273 267 263 260 256 253 249 243 238 234 224 218 214 214 211
284 280 274 269 267 265 267 266 267 268 268 267 267 268 270 273 275 280 284 286 286 285 286 287 285 283 279 275 271 269 263 259 253 248 244 241 236 232 228 222 213 213 215
283 279 274 272 268 265 263 264 264 266 265 267 267 268 270 271 273 276 281 283 284 287 290 288 286 285 282 277 271 267 263 255 249 242 235 233 231 226 223 221 219 214 214